DW7379 Weather Reports


time (UTC)temp
F
wind
direction
speed
knots
gust
knots
rain 1hr
in
rain 24hr
in
rain mn
in
humidity
%
barometer
mb
20260510162405 55 52 5.2 12.2 0.00 0.00 0.00 74 1013.5
20260510161904 55 52 6.1 11.3 0.00 0.00 0.00 74 1013.6
20260510161405 55 44 5.2 12.2 0.00 0.00 0.00 74 1013.7
20260510160903 55 52 5.2 13.9 0.00 0.00 0.00 75 1013.8
20260510160404 55 43 6.1 13.0 0.00 0.00 0.00 75 1013.8
20260510155904 55 41 6.1 13.0 0.00 0.00 0.00 75 1013.8
20260510155405 55 54 7.0 17.4 0.00 0.00 0.00 74 1013.9
20260510154904 55 44 4.3 17.4 0.00 0.00 0.00 74 1013.9
20260510154403 55 44 6.1 17.4 0.00 0.00 0.00 75 1013.9
20260510153903 55 51 6.1 14.8 0.00 0.00 0.00 74 1014.0
20260510153404 55 51 7.0 12.2 0.00 0.00 0.00 75 1014.0
20260510152905 55 36 7.8 17.4 0.00 0.00 0.00 75 1014.0
20260510152405 55 61 6.1 13.0 0.00 0.00 0.00 75 1014.0
20260510151904 55 46 8.7 15.6 0.00 0.00 0.00 74 1014.1
20260510151404 55 47 6.1 13.0 0.00 0.00 0.00 75 1014.2
20260510150904 55 32 7.0 13.0 0.00 0.00 0.00 75 1014.2
20260510150404 55 40 7.8 15.6 0.00 0.00 0.00 74 1014.3
20260510145903 55 54 5.2 11.3 0.00 0.00 0.00 75 1014.4
20260510145404 55 51 6.1 15.6 0.00 0.00 0.00 75 1014.4
20260510143903 54 35 5.2 10.4 0.00 0.00 0.00 77 1014.6
20260510142903 54 60 7.0 13.0 0.00 0.00 0.00 77 1014.7
20260510142405 54 43 7.8 14.8 0.00 0.00 0.00 77 1014.6
20260510141903 54 44 4.3 13.9 0.00 0.00 0.00 78 1014.7
20260510141404 54 38 7.8 13.0 0.00 0.00 0.00 78 1014.7
20260510140904 54 44 7.0 12.2 0.00 0.00 0.00 79 1014.7
20260510140404 54 37 5.2 10.4 0.00 0.00 0.00 81 1014.7
20260510135905 54 40 5.2 12.2 0.00 0.00 0.00 81 1014.6
20260510135404 54 35 7.8 14.8 0.00 0.00 0.00 80 1014.7
20260510134905 54 49 6.1 10.4 0.00 0.00 0.00 81 1014.7
20260510134405 53 48 6.1 14.8 0.00 0.00 0.00 81 1014.7
20260510133904 53 30 5.2 10.4 0.00 0.00 0.00 82 1014.7
20260510133404 53 38 5.2 10.4 0.00 0.00 0.00 82 1014.7
20260510132904 53 65 2.6 8.7 0.00 0.00 0.00 83 1014.8
20260510132405 53 53 3.5 10.4 0.00 0.00 0.00 83 1014.9
20260510131904 53 49 3.5 8.7 0.00 0.00 0.00 83 1014.9
20260510130904 53 39 6.1 12.2 0.00 0.00 0.00 84 1014.8
20260510130404 52 44 5.2 10.4 0.00 0.00 0.00 84 1014.8
20260510125404 52 42 8.7 17.4 0.00 0.00 0.00 84 1014.7
20260510124904 52 43 5.2 13.9 0.00 0.00 0.00 84 1014.8
20260510124404 52 26 7.8 12.2 0.00 0.00 0.00 85 1014.9
20260510123903 52 19 7.0 12.2 0.00 0.00 0.00 85 1015.0
20260510122904 52 40 6.1 14.8 0.00 0.00 0.00 85 1015.2
20260510122404 52 50 5.2 10.4 0.00 0.00 0.00 85 1015.3
20260510121903 52 44 4.3 10.4 0.00 0.00 0.00 85 1015.4
20260510121405 52 47 4.3 10.4 0.00 0.00 0.00 85 1015.4
20260510120904 52 52 2.6 7.8 0.00 0.00 0.00 85 1015.5
20260510120404 52 49 4.3 7.0 0.00 0.00 0.00 85 1015.6
20260510115904 52 44 5.2 7.8 0.00 0.00 0.00 84 1015.7
20260510115404 52 48 2.6 10.4 0.00 0.00 0.00 84 1015.7
20260510114904 52 38 3.5 10.4 0.00 0.00 0.00 84 1015.8
20260510114404 52 47 2.6 7.0 0.00 0.00 0.00 84 1015.9
20260510113904 52 39 2.6 10.4 0.00 0.00 0.00 83 1015.9
20260510111904 52 23 5.2 10.4 0.00 0.00 0.00 81 1015.9
20260510111404 52 67 2.6 6.1 0.00 0.00 0.00 82 1015.9
20260510110904 52 43 3.5 10.4 0.00 0.00 0.00 81 1016.0
20260510110404 52 44 5.2 12.2 0.00 0.00 0.00 80 1016.0
20260510105903 53 54 5.2 10.4 0.00 0.00 0.00 79 1016.1
20260510105404 53 52 6.1 13.9 0.00 0.00 0.00 79 1016.1
20260510104904 53 53 5.2 10.4 0.00 0.00 0.00 78 1016.0
20260510103903 53 57 5.2 11.3 0.00 0.00 0.00 77 1016.1
20260510102405 53 34 5.2 12.2 0.00 0.00 0.00 77 1016.0
20260510101904 53 52 5.2 13.0 0.00 0.00 0.00 76 1016.0
20260510101404 53 43 6.1 13.0 0.00 0.00 0.00 76 1016.0
20260510100403 53 46 7.8 13.9 0.00 0.00 0.00 75 1016.0
20260510095904 54 38 5.2 15.6 0.00 0.00 0.00 75 1016.0
20260510095405 54 25 6.1 14.8 0.00 0.00 0.00 75 1016.0
20260510094905 54 33 5.2 12.2 0.00 0.00 0.00 74 1016.0
20260510094404 54 40 7.8 13.0 0.00 0.00 0.00 73 1015.9
20260510093903 54 37 5.2 12.2 0.00 0.00 0.00 73 1015.9
20260510093403 54 39 6.1 13.9 0.00 0.00 0.00 72 1016.0
20260510092904 54 29 7.0 14.8 0.00 0.00 0.00 71 1016.0
20260510092404 54 24 7.0 14.8 0.00 0.00 0.00 71 1015.9
20260510091903 54 50 5.2 13.9 0.00 0.00 0.00 72 1015.9
20260510091404 54 43 7.8 17.4 0.00 0.00 0.00 71 1016.0
20260510090903 54 51 9.6 13.9 0.00 0.00 0.00 71 1016.0
20260510090403 54 37 7.0 15.6 0.00 0.00 0.00 71 1016.0
20260510085904 54 46 7.0 15.6 0.00 0.00 0.00 71 1016.0
20260510084904 54 32 7.0 13.0 0.00 0.00 0.00 72 1016.1
20260510084404 54 34 6.1 13.0 0.00 0.00 0.00 72 1016.1
20260510083904 54 33 4.3 10.4 0.00 0.00 0.00 73 1016.0
20260510083404 54 44 7.8 14.8 0.00 0.00 0.00 73 1016.1
20260510082904 53 50 5.2 11.3 0.00 0.00 0.00 73 1016.1
20260510081904 53 37 5.2 13.9 0.00 0.00 0.00 73 1016.0
20260510081403 53 39 8.7 17.4 0.00 0.00 0.00 73 1016.0
20260510080904 53 23 5.2 14.8 0.00 0.00 0.00 73 1016.1
20260510080405 53 33 4.3 10.4 0.00 0.00 0.00 74 1016.0
20260510075904 53 35 6.1 13.0 0.00 0.00 0.00 73 1015.9
20260510075403 53 40 5.2 17.4 0.00 0.00 0.00 73 1016.0
20260510074905 53 49 6.1 14.8 0.00 0.00 0.00 73 1016.0
20260510074404 53 39 6.1 13.9 0.00 0.00 0.00 73 1016.0
20260510073904 53 35 4.3 11.3 0.00 0.00 0.00 73 1015.9
20260510073405 53 35 6.1 17.4 0.00 0.00 0.00 73 1015.9
20260510072903 53 31 6.1 17.4 0.00 0.00 0.00 74 1016.0
20260510071905 53 42 6.1 10.4 0.00 0.00 0.00 74 1015.9
20260510071403 53 41 5.2 15.6 0.00 0.00 0.00 75 1015.9
20260510065903 52 40 7.0 12.2 0.00 0.00 0.00 75 1016.0
20260510065404 52 26 7.8 15.6 0.00 0.00 0.00 75 1015.9
20260510064904 52 31 5.2 12.2 0.00 0.00 0.00 75 1015.9
20260510064404 52 30 5.2 14.8 0.00 0.00 0.00 76 1016.0
20260510063903 52 45 5.2 17.4 0.00 0.00 0.00 76 1015.9
20260510063404 52 41 6.1 14.8 0.00 0.00 0.00 76 1015.9
20260510062904 52 45 7.8 14.8 0.00 0.00 0.00 76 1015.9
20260510061904 52 41 6.1 12.2 0.00 0.00 0.00 77 1015.9
20260510060903 52 46 6.1 15.6 0.00 0.00 0.00 77 1016.0
20260510060404 52 39 7.0 14.8 0.00 0.00 0.00 77 1015.9
20260510055903 52 44 6.1 15.6 0.00 0.00 0.00 77 1015.9
20260510055404 52 43 7.8 14.8 0.00 0.00 0.00 77 1015.9
20260510054904 51 34 5.2 14.8 0.00 0.00 0.00 77 1015.9
20260510054403 51 24 4.3 12.2 0.00 0.00 0.00 77 1016.0
20260510053903 51 45 5.2 13.9 0.00 0.00 0.00 77 1015.9
20260510053403 51 42 5.2 13.0 0.00 0.00 0.00 78 1016.0
20260510052904 51 43 6.1 13.0 0.00 0.00 0.00 77 1016.0
20260510052405 52 34 7.8 13.9 0.00 0.00 0.00 77 1016.0
20260510051904 52 41 4.3 10.4 0.00 0.00 0.00 77 1016.0
20260510050903 51 46 4.3 10.4 0.00 0.00 0.00 77 1016.0
20260510050405 52 29 7.0 14.8 0.00 0.00 0.00 77 1015.9
20260510045903 52 32 4.3 13.9 0.00 0.00 0.00 77 1015.9
20260510045404 52 31 6.1 13.9 0.00 0.00 0.00 77 1015.9
20260510044904 52 27 6.1 13.9 0.00 0.00 0.00 77 1015.9
20260510044404 52 50 6.1 13.9 0.00 0.00 0.00 77 1015.9
20260510043904 52 33 6.1 11.3 0.00 0.00 0.00 77 1015.8
20260510042903 52 29 6.1 12.2 0.00 0.00 0.00 76 1015.9
20260510042406 52 36 6.1 12.2 0.00 0.00 0.00 76 1015.8
20260510041904 52 44 5.2 10.4 0.00 0.00 0.00 76 1015.8
20260510041405 52 31 5.2 11.3 0.00 0.00 0.00 75 1015.8
20260510040903 52 39 6.1 11.3 0.00 0.00 0.00 75 1015.9
20260510040404 52 32 5.2 13.0 0.00 0.00 0.00 74 1015.9
20260510035905 52 29 4.3 11.3 0.00 0.00 0.00 73 1016.0
20260510035405 53 36 4.3 11.3 0.00 0.00 0.00 73 1016.0
20260510034904 53 50 5.2 12.2 0.00 0.00 0.00 72 1016.0
20260510034404 53 31 4.3 14.8 0.00 0.00 0.00 71 1016.0
20260510033905 53 35 5.2 13.0 0.00 0.00 0.00 70 1016.1
20260510032904 53 26 7.8 13.0 0.00 0.00 0.00 68 1016.1
20260510031904 54 26 7.0 13.0 0.00 0.00 0.00 67 1016.1
20260510031404 54 30 7.0 12.2 0.00 0.00 0.00 66 1016.1
20260510030904 54 21 4.3 12.2 0.00 0.00 0.00 66 1016.2
20260510030404 54 49 5.2 12.2 0.00 0.00 0.00 65 1016.2
20260510025405 54 35 6.1 13.0 0.00 0.00 0.00 65 1016.3
20260510024904 55 37 7.8 15.6 0.00 0.00 0.00 64 1016.2
20260510024404 55 38 5.2 12.2 0.00 0.00 0.00 64 1016.2
20260510023404 55 38 5.2 10.4 0.00 0.00 0.00 64 1016.3
20260510022404 55 53 3.5 13.9 0.00 0.00 0.00 63 1016.2
20260510021903 55 46 5.2 10.4 0.00 0.00 0.00 62 1016.2
20260510021404 55 46 2.6 7.8 0.00 0.00 0.00 62 1016.2
20260510020904 55 60 2.6 10.4 0.00 0.00 0.00 61 1016.3
20260510020403 55 54 2.6 10.4 0.00 0.00 0.00 61 1016.3
20260510015904 55 50 3.5 10.4 0.00 0.00 0.00 60 1016.3
20260510015404 55 51 3.5 8.7 0.00 0.00 0.00 59 1016.3
20260510014905 55 50 2.6 7.8 0.00 0.00 0.00 59 1016.3
20260510014404 56 51 4.3 10.4 0.00 0.00 0.00 59 1016.3
20260510013904 56 58 2.6 10.4 0.00 0.00 0.00 59 1016.3
20260510012904 56 54 4.3 7.8 0.00 0.00 0.00 58 1016.2
20260510012404 56 40 5.2 12.2 0.00 0.00 0.00 57 1016.2
20260510011403 56 39 5.2 7.8 0.00 0.00 0.00 57 1016.3
20260510010904 56 50 3.5 7.0 0.00 0.00 0.00 57 1016.3
20260510010404 56 45 3.5 7.0 0.00 0.00 0.00 57 1016.3
20260510005904 56 55 1.7 5.2 0.00 0.00 0.00 56 1016.4
20260510005404 56 53 2.6 7.0 0.00 0.00 0.00 56 1016.4
20260510004904 56 29 1.7 5.2 0.00 0.00 0.00 56 1016.4
20260510004405 56 60 3.5 7.0 0.00 0.00 0.00 55 1016.4
20260510003903 56 57 1.7 7.0 0.00 0.00 0.00 55 1016.4
20260510003404 56 63 4.3 10.4 0.00 0.00 0.00 55 1016.4
20260510002405 57 58 2.6 7.8 0.00 0.00 0.00 55 1016.4
20260510001403 57 78 3.5 7.8 0.00 0.00 0.00 55 1016.3
20260510000905 57 71 2.6 11.3 0.00 0.00 0.00 55 1016.4
20260509235904 57 71 1.7 6.1 0.00 0.00 0.00 54 1016.3
20260509235404 57 69 4.3 7.8 0.00 0.00 0.00 54 1016.2
20260509234904 57 66 2.6 7.0 0.00 0.00 0.00 53 1016.1
20260509233405 57 77 5.2 10.4 0.00 0.00 0.00 52 1016.1
20260509232903 57 67 4.3 10.4 0.00 0.00 0.00 51 1016.0
20260509232404 57 69 4.3 12.2 0.00 0.00 0.00 51 1016.1
20260509231904 58 63 5.2 10.4 0.00 0.00 0.00 51 1016.2
20260509231403 58 50 5.2 10.4 0.00 0.00 0.00 51 1016.3
20260509230904 58 64 3.5 10.4 0.00 0.00 0.00 51 1016.3
20260509225904 58 70 2.6 7.8 0.00 0.00 0.00 49 1016.1
20260509225404 58 69 4.3 10.4 0.00 0.00 0.00 48 1016.1
20260509224905 58 58 5.2 10.4 0.00 0.00 0.00 48 1016.1
20260509224403 58 58 2.6 10.4 0.00 0.00 0.00 47 1015.9
20260509223904 58 60 4.3 10.4 0.00 0.00 0.00 47 1015.9
20260509222904 58 53 4.3 11.3 0.00 0.00 0.00 46 1016.0
20260509222404 59 65 6.1 12.2 0.00 0.00 0.00 45 1016.0
20260509221905 59 57 5.2 11.3 0.00 0.00 0.00 45 1016.0
20260509220904 59 57 5.2 11.3 0.00 0.00 0.00 45 1016.1
20260509220403 59 49 3.5 10.4 0.00 0.00 0.00 45 1015.9
20260509215904 59 54 4.3 10.4 0.00 0.00 0.00 45 1015.9
20260509215403 59 47 7.0 13.9 0.00 0.00 0.00 45 1015.9
20260509214904 59 55 6.1 10.4 0.00 0.00 0.00 45 1015.9
20260509214404 59 54 6.1 13.0 0.00 0.00 0.00 45 1015.9
20260509212404 60 46 4.3 10.4 0.00 0.00 0.00 44 1015.8
20260509211903 60 45 6.1 13.9 0.00 0.00 0.00 44 1015.9
20260509210905 61 53 5.2 11.3 0.00 0.00 0.00 44 1015.8
20260509210404 61 55 5.2 12.2 0.00 0.00 0.00 44 1015.9
20260509205904 61 61 5.2 10.4 0.00 0.00 0.00 43 1015.8
20260509205404 61 53 4.3 12.2 0.00 0.00 0.00 43 1015.8
20260509204905 61 50 4.3 12.2 0.00 0.00 0.00 42 1015.7
20260509204403 61 59 5.2 10.4 0.00 0.00 0.00 42 1015.7
20260509203904 62 56 4.3 12.2 0.00 0.00 0.00 44 1015.7
20260509203404 62 57 2.6 7.8 0.00 0.00 0.00 44 1015.6
20260509202403 62 63 3.5 7.0 0.00 0.00 0.00 46 1015.4
20260509201904 62 45 3.5 10.4 0.00 0.00 0.00 46 1015.3
20260509201404 63 48 4.3 10.4 0.00 0.00 0.00 46 1015.2
20260509200903 63 47 5.2 12.2 0.00 0.00 0.00 47 1015.1
20260509200404 63 49 5.2 10.4 0.00 0.00 0.00 48 1015.1
20260509195904 63 51 4.3 10.4 0.00 0.00 0.00 49 1015.1
20260509195404 64 66 5.2 12.2 0.00 0.00 0.00 50 1015.0
20260509194904 64 55 5.2 13.0 0.00 0.00 0.00 50 1015.0
20260509194404 64 53 3.5 10.4 0.00 0.00 0.00 51 1014.9
20260509193904 64 48 4.3 10.4 0.00 0.00 0.00 51 1014.9
20260509193404 65 49 1.7 8.7 0.00 0.00 0.00 51 1014.8
20260509192904 65 50 5.2 11.3 0.00 0.00 0.00 50 1014.9
20260509192404 65 49 3.5 7.8 0.00 0.00 0.00 50 1014.9
20260509191404 65 46 5.2 13.0 0.00 0.00 0.00 49 1015.0
20260509190904 66 61 6.1 10.4 0.00 0.00 0.00 49 1015.0
20260509190404 66 48 4.3 10.4 0.00 0.00 0.00 48 1014.9
20260509185904 66 66 5.2 11.3 0.00 0.00 0.00 48 1014.9
20260509185404 66 67 5.2 10.4 0.00 0.00 0.00 48 1014.8
20260509184903 66 62 4.3 10.4 0.00 0.00 0.00 48 1014.8
20260509184404 66 55 5.2 11.3 0.00 0.00 0.00 48 1014.7
20260509183904 66 58 3.5 8.7 0.00 0.00 0.00 49 1014.5
20260509183404 66 57 4.3 12.2 0.00 0.00 0.00 49 1014.5
20260509182904 66 55 5.2 10.4 0.00 0.00 0.00 50 1014.6
20260509182404 66 66 3.5 7.8 0.00 0.00 0.00 52 1014.6
20260509181904 65 39 2.6 10.4 0.00 0.00 0.00 54 1014.6
20260509181404 65 81 2.6 7.8 0.00 0.00 0.00 57 1014.7
20260509180904 65 87 2.6 11.3 0.00 0.00 0.00 59 1014.7
20260509180404 65 96 3.5 7.0 0.00 0.00 0.00 60 1014.7
20260509175405 65 100 1.7 5.2 0.00 0.00 0.00 61 1014.5
20260509174903 65 89 2.6 6.1 0.00 0.00 0.00 60 1014.5
20260509174403 66 84 2.6 6.1 0.00 0.00 0.00 59 1014.5
20260509173904 66 61 1.7 2.6 0.00 0.00 0.00 58 1014.5
20260509172903 66 97 2.6 6.1 0.00 0.00 0.00 58 1014.6
20260509172404 66 120 2.6 5.2 0.00 0.00 0.00 58 1014.6
20260509171903 66 114 3.5 6.1 0.00 0.00 0.00 58 1014.7
20260509171404 66 104 3.5 5.2 0.00 0.00 0.00 57 1014.6
20260509170903 66 103 4.3 7.0 0.00 0.00 0.00 56 1014.6
20260509170403 66 109 5.2 7.8 0.00 0.00 0.00 58 1014.6
20260509165903 66 102 5.2 8.7 0.00 0.00 0.00 59 1014.6
20260509165404 66 110 4.3 7.0 0.00 0.00 0.00 59 1014.6
20260509164403 67 113 4.3 7.0 0.00 0.00 0.00 60 1014.7
20260509163904 67 99 5.2 7.8 0.00 0.00 0.00 60 1014.7
20260509162904 67 100 4.3 7.0 0.00 0.00 0.00 58 1014.7